Wind_Speed
15 15 16 17 19 20 19 19 20 20 19 18 17 17 17 18 18 19 20 19 16 15 19 23 25 27 28 31 33 33 32 29 26 25 27 28 27 27 27 26 26 25 23 24 24 24 23 24 24 23 21 20 21 22 22 21 21 21 22 24 25 24 24 25 25 22 22 23 23 23 24 25 26 26 26 23 20 18 19 21 19 18 20 21 20
15 15 16 17 19 20 20 20 22 23 21 19 18 17 18 18 19 19 19 19 17 16 19 22 24 27 30 33 34 33 29 26 24 23 24 23 23 24 25 24 24 24 24 24 26 25 25 25 24 23 21 21 21 22 21 21 22 23 24 25 25 26 25 26 25 23 23 24 25 24 25 27 27 26 26 25 22 20 20 22 20 19 20 20 20
15 15 16 17 19 21 21 21 23 24 23 22 21 20 18 18 18 19 19 20 19 18 19 22 25 29 33 34 32 29 24 21 20 19 20 21 22 23 23 22 23 23 23 23 25 25 24 23 21 22 22 21 22 22 21 21 21 23 24 23 24 25 25 25 25 24 24 24 25 27 27 28 28 26 26 25 20 20 23 24 22 22 21 21 21
16 16 17 18 20 21 22 23 24 25 24 24 24 22 20 19 19 19 19 19 20 20 21 23 25 30 33 30 25 22 18 16 17 18 18 19 20 21 21 20 21 23 22 21 23 25 24 23 21 22 23 22 22 22 21 21 21 22 22 22 22 21 21 23 24 24 25 24 26 28 28 28 28 24 23 24 20 19 24 24 22 22 22 22 21
17 18 19 20 21 21 22 23 24 26 26 26 25 24 22 20 19 20 19 18 20 21 22 24 24 26 28 23 18 17 15 14 16 17 16 16 17 20 19 18 19 22 21 19 21 23 23 23 22 22 22 22 22 22 21 21 21 21 19 18 19 20 21 23 24 24 25 25 26 28 28 29 29 25 21 24 23 21 23 24 20 20 22 22 20
19 19 20 20 21 22 22 23 25 26 27 26 26 26 24 22 20 21 20 19 20 21 22 24 23 23 23 19 16 15 14 13 13 14 13 13 15 17 16 16 18 21 20 19 21 22 22 22 23 22 21 22 22 22 22 21 21 19 17 16 16 19 23 24 25 25 26 26 27 29 29 28 29 28 23 23 26 23 23 25 22 18 21 22 20
19 20 21 21 22 22 22 22 23 24 25 26 26 26 25 23 22 22 22 20 20 20 21 23 23 21 20 15 13 14 14 13 13 15 14 12 12 14 15 15 16 18 19 19 21 22 20 22 23 22 21 22 22 23 22 21 20 19 18 18 17 19 22 25 27 27 27 27 27 29 31 28 28 29 25 23 27 22 20 27 27 22 22 23 22
19 20 21 21 22 22 21 21 22 22 23 24 25 26 26 24 22 22 23 22 21 21 20 20 20 19 17 13 11 11 12 14 15 16 16 14 12 14 15 15 15 16 17 18 20 21 20 21 23 23 22 22 22 23 22 21 20 19 19 19 18 20 22 24 27 28 27 28 28 28 30 28 27 29 25 24 28 24 20 27 29 26 25 24 24
20 20 21 22 22 22 22 22 22 23 23 24 25 26 27 25 23 22 24 25 23 22 20 18 18 17 15 13 10 8 10 14 16 16 15 14 14 14 14 15 14 14 14 16 18 20 20 21 22 23 23 23 22 22 22 21 21 21 21 21 20 20 22 24 27 28 28 30 30 28 29 28 28 30 27 27 31 28 23 24 27 26 26 26 26
20 21 22 23 23 22 23 23 23 24 25 25 25 26 27 27 25 23 24 25 25 24 22 19 17 16 14 14 13 10 9 11 13 14 15 15 15 15 14 14 14 14 14 16 18 19 21 22 22 23 24 23 21 21 21 21 21 21 21 22 21 21 22 24 27 29 29 32 31 28 29 29 28 30 30 28 29 30 26 24 26 26 25 27 27
20 21 22 23 23 23 24 24 24 24 25 25 25 26 27 27 26 25 25 25 26 26 26 23 20 18 15 14 15 14 12 11 11 13 15 16 16 15 14 14 14 15 15 16 17 18 19 20 21 22 23 23 22 21 21 20 21 21 20 21 22 21 21 23 25 28 29 32 33 30 30 30 28 29 31 27 26 29 27 24 26 26 26 28 28
20 21 22 22 22 23 25 26 25 25 26 26 26 26 26 27 27 27 27 27 26 26 28 27 24 21 19 17 16 16 16 15 14 13 14 15 15 15 15 15 16 16 16 17 17 18 19 18 18 19 21 22 22 22 21 20 21 21 21 21 21 21 21 21 22 25 28 30 32 31 30 30 28 28 28 26 25 27 25 24 26 28 26 27 28
20 21 21 21 22 23 24 25 26 27 28 27 27 27 27 28 27 27 27 27 28 28 28 29 28 26 24 22 20 19 18 18 17 15 14 15 16 17 17 17 18 18 17 17 18 19 20 17 15 16 17 17 19 21 23 23 22 22 21 20 20 20 21 21 20 22 25 28 31 31 29 27 27 27 26 26 26 26 26 25 26 28 27 26 26
20 21 21 22 22 23 23 24 26 27 29 29 29 29 30 30 29 28 26 26 27 27 29 30 28 28 28 27 25 23 21 20 19 18 17 17 17 18 18 19 19 19 18 18 19 21 21 17 14 14 13 14 16 19 22 23 23 23 22 21 21 20 20 20 19 20 24 28 30 31 29 27 28 27 26 27 28 29 30 29 25 26 27 25 23
20 21 22 22 23 23 24 25 25 26 27 28 29 29 31 32 32 31 28 27 26 25 25 28 29 29 28 28 28 27 25 23 21 20 19 20 19 18 18 18 19 19 19 18 18 19 19 18 17 14 12 12 14 17 20 19 19 20 21 21 21 22 21 21 20 21 25 28 29 30 31 30 30 30 26 26 29 31 31 29 24 22 24 25 23
20 21 22 23 23 24 25 25 25 26 27 27 28 29 30 31 32 32 31 29 28 26 24 25 27 29 30 29 29 29 28 26 25 22 20 20 20 19 18 17 17 19 19 18 16 16 16 18 18 16 13 13 15 17 17 16 16 18 19 21 22 22 22 22 22 22 24 27 28 29 31 29 30 31 29 26 28 28 28 28 26 24 23 24 25
20 20 21 22 23 24 24 24 25 26 27 28 28 28 28 29 29 30 30 30 30 30 27 25 25 27 29 30 31 31 31 30 28 27 24 21 19 18 18 17 16 17 18 18 16 15 15 17 17 16 15 15 17 16 16 17 18 16 15 19 22 23 23 22 23 23 24 27 28 28 29 28 27 30 31 29 28 28 28 28 29 29 26 23 22
20 20 20 21 22 23 23 24 25 26 27 27 27 27 27 28 28 27 27 28 29 31 30 27 26 26 27 29 31 32 33 33 32 30 28 26 22 19 17 17 16 16 15 15 16 16 16 17 16 15 15 15 15 15 16 18 18 14 13 17 21 23 24 23 23 24 25 27 27 28 28 27 26 28 31 32 31 30 31 31 30 31 30 26 22
19 19 19 20 21 22 23 24 24 25 26 26 26 27 27 28 28 26 26 26 27 30 30 28 28 28 28 29 31 33 34 34 34 33 31 29 27 24 19 15 15 15 13 12 12 13 16 17 16 15 15 14 14 15 16 17 17 16 16 18 21 23 23 22 21 22 24 27 28 27 27 26 26 27 29 31 32 33 35 34 33 32 33 31 28
18 18 18 19 19 21 22 23 23 24 25 25 26 27 27 27 28 28 26 26 26 28 30 29 27 28 30 31 31 33 34 35 35 35 34 33 31 29 25 20 16 15 14 11 9 8 12 15 15 14 15 15 16 17 17 17 16 17 18 20 22 21 20 20 19 20 22 24 25 25 24 25 25 26 29 30 31 34 32 28 30 33 33 33 35
16 17 18 18 18 20 21 21 22 24 25 25 25 26 26 27 29 29 27 26 25 26 28 28 27 27 29 31 31 32 33 34 35 35 35 36 35 33 31 28 23 20 16 13 10 8 11 12 12 13 14 15 16 17 17 16 15 15 18 21 21 18 17 17 17 18 20 21 22 23 23 24 24 25 28 29 30 33 31 26 28 32 29 28 33
16 16 17 17 18 19 20 20 21 22 24 25 25 26 24 24 28 30 29 27 25 26 27 27 27 27 27 29 31 32 31 32 32 33 34 35 35 35 33 30 27 24 20 17 13 10 11 12 12 13 14 15 15 16 17 18 16 15 17 20 19 16 14 16 17 19 21 21 21 21 20 21 22 21 23 25 24 26 27 25 26 29 26 23 27
15 16 17 17 18 19 18 19 19 19 21 23 25 26 25 24 27 30 30 28 26 26 27 27 27 27 26 27 31 33 33 32 31 30 30 30 32 33 32 30 28 27 24 21 18 14 13 13 13 14 15 15 15 15 18 19 18 19 19 20 20 15 11 13 15 16 17 16 15 15 15 15 17 17 18 18 18 18 19 21 22 23 23 21 21
15 16 16 16 17 18 18 18 18 19 20 22 23 25 24 24 27 30 30 29 28 27 28 28 27 27 26 26 28 31 32 34 32 30 28 27 27 28 29 29 28 27 26 24 22 19 16 14 13 12 12 11 10 12 16 15 14 19 21 20 18 13 9 11 14 15 16 17 16 15 15 14 16 17 16 16 17 16 16 17 18 19 21 21 19
14 15 16 15 16 17 18 17 17 18 20 21 22 23 23 23 28 30 29 30 29 28 29 29 27 26 27 28 28 29 30 31 32 30 28 27 26 25 24 24 25 25 25 25 23 21 19 16 13 11 9 7 5 7 11 11 13 18 20 19 18 18 19 21 21 22 22 23 22 21 21 19 18 17 17 16 16 16 15 15 15 16 17 18 18
13 13 14 15 15 16 17 17 16 17 19 19 20 23 23 24 28 31 30 30 29 28 29 30 28 25 26 30 31 30 30 30 29 28 28 27 27 27 24 22 20 20 21 22 21 20 19 17 14 11 7 4 2 4 8 13 17 19 20 21 22 24 27 27 27 27 27 27 27 25 23 21 20 19 18 16 15 14 13 13 14 14 14 14 13
12 13 13 14 15 15 16 17 17 17 18 19 21 24 25 25 28 31 31 31 31 29 29 30 30 27 27 31 32 30 29 30 29 27 27 26 27 27 26 24 22 19 18 18 17 17 17 17 15 12 9 5 1 2 6 10 15 17 19 21 22 23 25 28 29 30 28 27 26 25 22 21 21 20 19 18 17 15 13 12 13 13 11 10 10
12 12 12 13 14 15 15 16 17 18 18 20 23 25 25 26 27 29 30 31 31 30 29 30 30 29 29 33 34 31 28 28 28 28 27 26 26 26 26 26 26 24 23 21 17 13 11 11 11 11 10 8 6 5 6 7 8 10 13 16 18 17 17 20 22 22 22 22 22 22 21 21 20 20 20 20 20 19 17 15 15 14 12 11 12
11 11 12 13 14 15 14 14 16 18 18 20 23 24 23 24 26 27 28 30 30 30 29 29 29 30 31 33 36 36 30 26 25 26 24 23 23 23 23 24 24 25 25 23 19 15 11 9 9 9 9 9 9 9 10 10 9 8 9 11 12 13 13 14 16 16 16 17 18 20 21 22 22 21 21 20 20 20 18 16 16 17 15 13 13
11 11 11 12 13 14 14 14 15 17 17 17 20 22 22 24 25 26 27 29 29 29 29 28 28 31 33 34 36 38 31 22 20 22 21 20 20 19 19 19 20 22 23 22 19 17 15 14 14 13 13 11 10 10 10 9 8 7 7 8 9 9 10 11 14 15 15 16 17 18 19 20 20 19 19 19 19 17 14 12 12 12 12 12 13
10 11 10 11 12 13 13 13 15 16 16 16 17 19 21 23 25 25 26 27 28 28 29 28 27 31 34 35 37 38 29 18 16 18 19 19 19 17 15 16 18 21 22 21 21 20 19 18 18 17 16 15 14 13 11 9 8 7 5 4 4 4 5 7 9 10 11 12 13 14 14 14 15 15 15 16 16 15 13 12 12 13 14 14 15
9 10 11 10 11 12 13 13 14 15 16 16 16 17 19 21 23 24 24 25 26 27 27 27 27 31 34 35 37 38 29 17 15 16 16 18 19 16 13 14 17 19 21 21 21 21 20 19 19 18 17 17 16 15 14 12 11 10 9 8 8 7 6 6 7 8 9 10 11 12 12 12 12 12 12 13 14 14 14 13 12 12 12 12 12
6 7 11 11 10 12 13 12 13 14 14 15 15 16 17 19 20 21 22 23 24 25 26 25 26 30 32 33 35 36 28 18 15 15 14 15 17 15 13 13 15 17 19 21 21 20 19 18 19 18 17 17 16 15 15 14 13 12 12 12 13 13 12 11 10 10 10 11 11 11 11 11 11 12 12 12 12 13 13 12 12 10 9 10 11
5 6 13 14 9 10 13 13 11 12 13 14 15 16 16 17 18 18 20 20 20 22 23 23 24 27 29 30 33 35 28 17 13 15 15 13 14 14 13 12 13 15 18 20 21 21 19 17 18 18 17 16 16 15 15 14 13 13 13 13 13 14 13 13 13 13 13 13 13 14 14 13 12 12 12 12 11 11 11 11 11 11 12 14 14
6 8 15 17 11 10 12 12 11 11 12 14 15 15 15 16 17 17 18 18 18 19 20 20 22 23 24 27 33 35 28 19 13 14 14 13 12 12 12 13 14 15 17 19 20 20 19 18 17 17 16 16 15 16 16 15 14 14 14 14 14 14 14 14 14 15 14 14 14 14 14 14 13 13 13 12 11 11 12 12 13 14 14 14 14
7 9 16 18 13 9 10 11 11 12 13 13 14 14 14 15 16 16 16 17 18 19 18 18 20 20 20 25 32 32 28 25 20 14 11 12 13 13 13 14 15 15 16 18 19 18 18 17 16 16 16 15 15 15 16 15 15 14 14 14 14 15 15 15 15 15 15 16 16 16 16 15 14 13 13 12 11 12 12 13 14 15 13 12 12
7 10 16 17 11 8 9 11 11 12 13 12 13 14 14 14 14 15 15 16 18 19 17 18 20 19 19 26 33 30 25 27 28 21 12 9 11 13 14 13 12 13 16 19 19 17 15 14 14 15 16 16 16 16 16 15 15 16 16 17 17 17 18 19 18 18 18 18 19 18 17 16 14 13 13 13 12 12 11 11 13 15 14 13 12
8 11 15 15 11 8 9 12 12 12 13 13 13 14 15 14 14 14 15 16 17 18 18 18 19 20 21 27 32 28 23 24 29 28 22 15 11 12 13 13 11 12 15 18 17 16 14 12 12 13 15 16 17 16 16 15 16 17 18 18 19 19 20 19 19 19 18 17 17 16 15 13 11 11 11 11 12 13 13 12 12 13 13 12 12
9 10 13 14 11 8 8 11 11 12 12 12 12 13 14 14 14 14 15 15 16 17 18 18 18 19 22 26 29 26 22 23 26 27 26 23 18 13 12 13 12 11 13 15 14 13 13 12 11 12 13 14 14 15 15 16 16 16 17 17 18 18 17 16 15 15 14 14 14 13 12 12 11 9 9 10 11 11 11 10 9 9 11 12 12
7 8 10 11 10 8 9 10 11 11 11 11 11 12 13 13 13 13 14 14 15 16 17 16 17 18 20 24 26 24 21 22 23 23 23 24 23 18 12 11 12 12 11 11 11 11 13 12 11 11 11 11 11 12 14 15 16 15 15 14 13 12 11 11 12 13 13 13 13 12 11 11 11 10 11 11 11 9 8 9 9 10 11 12 10
6 7 9 9 9 10 11 11 11 10 10 11 12 12 13 13 13 13 13 13 14 15 15 14 15 17 18 21 23 21 19 19 21 21 20 21 23 22 16 11 11 13 12 10 9 9 10 11 11 11 11 11 11 11 12 12 13 14 14 13 13 11 9 10 11 11 9 9 9 9 9 9 10 11 11 10 9 8 7 6 7 9 11 10 8
6 7 9 9 9 10 11 11 11 12 11 11 12 13 14 13 12 12 13 13 13 15 14 13 14 15 17 19 21 19 17 16 17 19 20 20 21 22 19 14 11 12 11 10 9 7 7 8 9 9 9 9 9 8 7 8 9 10 11 12 13 13 12 12 12 11 10 9 9 9 10 10 9 9 9 7 6 8 9 7 6 8 9 9 7
6 7 9 9 9 9 10 10 12 12 11 11 12 14 15 14 12 12 13 13 14 14 13 12 13 13 14 17 18 17 16 15 15 15 18 19 20 20 19 16 13 11 11 10 9 6 3 4 5 5 5 5 4 3 4 6 7 8 7 7 8 10 12 12 11 11 11 11 11 10 10 9 7 6 6 6 5 6 8 8 8 7 6 4 5
5 7 8 8 9 9 9 10 11 11 11 10 11 12 13 12 12 13 13 12 14 13 12 13 15 14 12 13 14 14 14 15 14 13 14 15 17 18 18 17 15 13 11 10 9 6 5 6 6 4 3 3 1 2 3 5 7 8 8 6 4 4 5 7 7 6 5 5 6 7 7 7 6 6 6 7 6 4 5 6 7 6 4 4 6
5 7 7 8 9 9 9 9 10 10 11 11 11 11 12 12 12 13 13 12 13 12 11 13 15 15 12 12 13 11 12 14 15 13 12 11 12 15 17 18 17 16 14 12 9 6 5 6 6 5 5 5 2 2 3 4 5 6 6 5 2 2 2 2 3 5 3 1 4 6 5 4 3 2 4 5 5 3 3 5 5 4 3 4 7
4 7 7 8 9 9 8 9 10 11 12 12 12 12 13 13 12 12 13 12 12 12 11 12 14 14 14 15 14 11 10 12 13 14 13 11 9 11 14 17 19 17 17 17 15 11 7 4 3 2 4 5 5 4 4 4 3 2 2 3 3 2 4 5 6 5 5 3 3 6 6 5 3 2 4 5 5 3 2 3 3 3 3 2 1
5 7 7 7 8 8 8 8 9 11 12 12 12 13 13 13 12 13 14 14 13 12 12 12 12 12 14 15 15 14 12 12 12 13 13 13 11 10 11 15 18 17 15 16 19 18 15 11 7 5 3 3 3 5 5 5 3 2 4 5 6 6 4 4 5 6 7 6 2 4 5 5 4 3 6 6 4 4 5 4 3 4 5 4 5
5 5 6 7 7 7 8 9 10 11 12 12 12 12 13 13 13 13 14 14 14 13 13 12 11 12 12 14 14 13 13 12 11 11 11 12 12 12 11 12 14 15 14 14 16 18 18 17 16 13 8 4 3 3 4 3 3 4 5 5 7 8 7 5 2 3 6 6 3 2 2 1 1 1 2 3 3 5 7 5 2 4 4 2 2
5 4 6 7 6 7 8 9 10 11 11 11 12 12 12 13 14 14 14 14 14 14 14 13 12 12 13 13 12 11 11 10 10 10 10 10 11 13 14 12 12 13 14 13 14 15 16 16 17 16 13 11 9 5 3 2 4 5 5 6 7 9 9 7 3 2 3 5 5 2 1 3 6 6 4 2 2 3 7 7 6 6 3 1 1
5 5 7 7 6 8 8 8 9 10 10 10 12 13 12 13 13 13 13 14 13 14 14 14 13 13 13 12 11 10 10 10 9 10 10 10 10 12 14 13 11 11 11 11 12 14 14 14 15 14 14 14 12 9 6 6 6 7 8 9 9 9 8 5 2 3 3 3 5 4 1 3 5 6 3 0 2 1 6 10 10 7 3 1 2
6 6 7 7 7 9 8 7 8 10 9 10 12 12 12 13 13 12 12 13 13 13 14 14 13 13 13 12 11 10 9 9 9 10 10 9 9 10 11 10 10 10 9 8 8 10 10 10 12 13 12 10 9 11 13 12 11 11 12 11 10 8 5 2 2 2 2 2 4 4 2 2 5 6 3 2 4 3 5 10 10 8 5 1 4
Wind_Direction
20 11 6 3 0 359 358 359 0 358 354 348 341 338 337 332 328 328 328 326 323 324 322 316 311 311 311 309 308 306 300 293 288 286 279 268 261 257 250 245 244 243 240 240 239 235 231 230 231 231 232 233 231 230 230 227 224 221 214 212 217 218 215 211 210 211 211 211 207 201 195 189 190 205 215 216 215 214 216 216 210 208 210 208 206
20 13 9 7 5 3 2 4 4 1 360 358 350 343 340 336 331 331 333 331 330 332 331 321 314 314 314 311 308 306 301 292 287 285 279 269 263 257 249 244 246 246 242 242 240 236 233 232 233 235 233 230 228 227 228 226 221 218 213 213 217 219 218 214 212 212 208 207 205 198 196 196 193 199 213 216 214 212 208 209 211 212 211 210 209
21 16 11 11 11 7 5 8 7 2 0 1 357 352 348 344 339 335 334 331 327 325 325 321 320 321 321 317 310 307 302 291 286 284 280 273 264 258 254 252 251 248 246 246 244 241 236 231 231 231 227 224 225 227 227 223 219 215 212 213 216 215 215 215 215 213 208 206 203 197 197 198 191 194 215 222 216 210 206 206 211 216 218 215 211
21 18 15 18 17 10 8 11 9 3 1 3 2 358 352 349 344 338 335 333 329 327 324 322 325 330 332 328 322 319 310 294 290 291 288 280 267 258 257 256 256 255 251 248 250 249 242 234 230 227 224 224 227 229 226 222 220 217 214 213 213 211 208 209 212 212 209 205 203 199 197 197 190 189 208 218 215 211 208 207 213 220 224 220 213
22 19 19 21 19 13 13 14 10 5 4 5 3 359 356 354 351 344 339 337 333 330 328 329 335 341 344 345 343 336 328 316 310 305 296 284 272 264 257 253 257 263 264 261 262 260 251 240 234 228 226 227 230 232 228 222 221 222 219 210 207 210 208 203 204 208 210 208 204 198 195 196 191 182 195 216 216 208 205 209 218 222 219 219 217
24 21 20 21 19 17 17 16 12 9 7 6 4 2 359 358 357 352 346 342 337 332 331 337 346 347 347 357 0 345 335 328 319 312 305 295 282 271 264 262 263 265 270 270 267 264 258 249 241 233 231 232 231 232 229 224 221 221 217 209 208 213 212 207 204 205 208 209 206 200 197 198 194 183 188 211 214 208 203 204 212 217 208 210 217
25 22 21 22 21 19 19 17 14 11 8 7 6 5 3 1 3 1 356 349 344 340 337 340 348 346 342 352 0 347 338 331 319 313 310 304 291 280 278 281 277 272 272 272 269 266 259 255 249 237 232 235 233 231 230 226 223 222 217 212 210 207 206 206 204 204 207 209 208 204 199 200 201 192 189 203 213 217 209 198 202 211 206 204 210
26 24 21 21 21 20 19 17 15 13 11 10 8 7 6 6 8 7 4 359 352 351 349 344 343 340 337 346 356 350 344 342 333 320 308 295 283 279 280 282 282 279 278 276 274 271 264 259 256 245 236 237 236 232 231 227 226 226 221 215 211 205 206 208 205 204 206 206 204 202 199 200 203 197 193 202 209 211 204 196 199 205 204 203 207
28 25 21 22 23 20 18 18 16 14 14 13 10 9 9 9 11 12 13 11 5 359 356 352 343 334 328 333 348 352 344 340 335 324 310 297 284 277 276 280 281 282 283 281 278 276 272 265 259 251 244 241 236 233 232 229 226 226 222 217 213 209 210 211 207 205 205 204 201 200 200 202 204 201 200 204 205 202 199 197 200 203 204 204 208
29 26 23 24 23 20 19 19 17 16 16 16 14 12 11 11 12 14 16 17 16 10 2 357 351 342 329 320 325 332 331 326 320 314 308 301 293 283 279 280 281 283 289 290 286 281 276 270 262 254 248 242 236 232 231 229 226 225 223 220 217 213 210 208 206 206 207 204 200 198 198 200 202 203 203 204 206 203 196 195 199 201 204 205 206
29 27 25 25 23 20 19 20 19 18 17 16 15 15 14 13 14 14 12 13 19 20 16 9 0 354 346 330 319 319 321 316 306 301 301 300 296 287 282 283 284 286 289 291 291 285 277 272 266 259 251 244 240 232 226 228 226 222 221 220 218 214 210 209 207 207 209 204 198 195 197 198 202 205 208 211 209 201 194 196 201 201 203 203 201
30 28 27 25 24 21 19 19 20 18 18 18 17 16 16 14 15 17 13 9 11 16 20 20 15 7 360 350 336 325 318 311 302 293 289 289 287 282 280 282 282 282 283 286 289 288 281 274 269 265 257 250 248 237 225 225 228 225 223 221 217 210 208 213 212 208 208 205 199 195 195 198 201 201 204 210 209 201 199 202 204 201 203 205 203
31 29 28 25 24 23 21 21 19 17 17 18 18 19 18 17 17 18 15 11 8 8 10 15 20 20 14 7 359 347 332 318 309 298 288 282 279 276 277 278 278 279 281 284 286 287 288 284 275 273 268 261 258 247 232 226 227 228 226 225 223 216 210 214 214 210 207 205 204 200 195 201 207 201 199 205 205 201 200 203 205 204 205 208 211
31 30 28 25 24 23 23 23 21 17 16 16 17 18 19 19 18 18 16 14 12 10 7 4 8 16 18 15 11 5 354 340 325 309 296 287 281 277 275 274 276 279 280 283 285 287 292 294 289 283 272 262 259 252 241 234 228 227 227 224 224 220 212 210 210 208 203 202 206 206 202 206 211 204 202 206 206 203 200 199 201 205 207 209 213
31 29 28 25 24 24 23 23 23 20 17 17 17 15 14 15 16 16 16 14 13 14 12 4 0 2 7 10 11 10 7 1 348 329 311 298 288 282 278 272 270 273 275 280 286 290 292 294 295 288 267 252 250 247 246 244 236 231 230 227 225 222 217 214 213 212 208 206 209 211 209 208 205 202 202 203 204 208 207 203 202 207 210 212 215
30 28 27 25 24 25 24 24 24 22 20 20 19 16 14 14 14 12 12 12 12 13 15 11 5 0 358 360 4 7 7 6 2 353 338 317 299 289 285 279 271 268 270 274 282 288 288 290 295 291 272 259 253 246 245 247 242 235 232 229 227 225 223 221 221 219 215 213 213 212 212 210 204 204 208 206 203 208 211 209 209 213 214 211 213
31 29 27 25 24 25 25 24 24 23 21 20 20 19 16 15 14 12 10 9 9 10 13 13 11 6 1 358 359 2 4 5 4 3 360 348 327 305 295 292 285 275 270 273 276 275 275 281 288 286 273 262 255 247 243 242 237 231 228 227 224 223 222 222 223 221 216 214 215 213 214 214 210 211 214 212 208 206 207 209 213 215 214 210 209
31 29 27 25 23 24 25 25 24 24 22 20 19 19 18 16 15 15 12 8 6 7 10 11 10 9 7 4 2 2 3 5 4 4 5 4 357 340 320 309 301 290 282 281 279 271 269 276 282 280 271 262 252 242 235 234 231 221 219 223 220 219 220 219 219 219 216 215 216 216 214 213 214 216 217 218 217 213 211 213 216 215 212 208 207
30 30 28 25 23 23 25 26 25 23 22 20 17 17 19 17 17 17 15 12 8 6 7 9 10 9 9 10 9 7 7 7 6 6 7 9 10 6 354 336 318 307 298 288 282 271 266 271 273 269 265 261 253 240 233 235 232 218 215 224 223 220 221 222 220 220 220 218 216 216 215 212 214 219 220 221 222 221 219 216 217 221 219 214 212
31 31 29 26 25 24 23 25 26 24 22 21 18 18 19 18 17 17 17 15 11 6 5 8 11 9 9 12 14 13 12 12 10 8 9 11 13 13 11 6 352 335 319 301 284 261 255 262 265 261 258 257 253 242 234 239 235 215 206 214 221 222 223 224 221 219 221 220 217 220 222 220 220 221 222 223 222 223 224 218 215 221 221 215 212
32 31 29 26 25 25 23 23 27 27 24 22 20 19 19 18 18 17 16 15 13 8 7 8 10 8 7 10 14 15 14 12 11 10 9 10 12 13 15 15 10 360 344 324 302 269 255 259 260 256 253 256 258 249 237 238 242 226 207 206 216 224 220 212 207 208 214 218 220 223 226 225 223 222 223 225 224 226 229 225 219 221 221 216 212
33 31 30 27 26 26 24 23 25 25 22 21 21 19 16 15 17 17 15 14 13 10 9 10 8 5 5 8 13 15 14 10 10 9 9 10 11 12 14 15 13 9 2 351 337 315 293 283 277 270 260 258 267 263 246 238 239 231 213 205 215 225 215 203 204 208 212 214 217 218 220 221 221 220 222 226 228 230 232 229 224 225 226 222 216
34 32 32 30 26 26 25 22 19 18 19 20 19 18 14 11 13 16 16 15 14 11 10 11 8 3 3 6 8 10 12 12 10 8 7 9 11 11 12 13 13 13 11 7 4 354 334 316 305 295 278 266 267 265 255 248 238 223 209 203 212 222 218 207 204 199 195 192 192 196 202 209 211 211 212 216 218 220 222 220 220 222 219 211 203
33 32 34 33 28 26 26 22 17 17 21 21 17 16 13 8 10 15 16 16 16 13 10 12 9 4 6 8 5 3 6 10 12 11 10 9 10 12 13 14 15 16 15 14 12 9 0 348 336 322 302 286 277 261 254 252 234 212 198 191 196 200 184 170 166 158 156 160 163 168 176 186 193 195 195 197 198 200 203 205 207 209 209 203 193
33 32 35 34 29 27 27 24 19 18 19 19 17 16 13 7 9 15 16 16 17 15 13 14 13 7 5 6 3 0 3 8 11 12 14 15 14 13 12 15 18 20 22 20 16 13 11 5 357 348 335 320 290 240 224 211 197 192 185 177 175 169 155 150 154 158 160 163 165 166 169 174 178 179 180 182 186 190 191 190 191 192 195 197 192
33 33 34 33 30 29 28 26 22 16 13 15 17 17 14 10 11 14 16 16 17 16 14 15 16 9 2 1 1 358 359 4 8 9 11 16 18 15 13 15 18 22 25 26 23 20 18 14 7 2 356 341 293 181 170 172 176 178 177 173 167 163 161 163 168 169 167 166 168 168 167 168 169 168 170 174 176 176 179 183 186 185 186 189 189
33 34 34 31 29 27 26 25 22 15 9 11 15 15 14 12 11 13 14 15 16 16 14 15 15 12 4 1 2 358 355 357 3 6 9 13 16 16 14 15 16 18 21 24 25 26 27 27 24 23 22 11 347 115 130 153 164 163 162 164 164 163 166 170 171 169 166 165 168 168 165 164 164 161 160 158 152 144 143 153 160 162 164 169 168
35 35 32 28 27 25 23 21 20 16 10 8 10 11 12 11 10 11 13 12 12 12 12 12 14 13 7 4 3 360 354 353 357 1 5 9 12 14 15 16 17 18 16 13 11 11 16 23 28 33 40 45 52 70 88 113 136 139 139 149 157 161 164 168 168 165 160 159 160 159 157 155 153 151 150 147 139 131 127 128 126 121 122 130 133
33 32 27 24 24 23 20 17 16 15 12 7 4 5 9 11 10 10 11 10 9 8 8 7 10 11 9 5 3 359 355 353 354 357 0 2 4 7 12 16 20 22 19 13 7 3 1 2 8 19 27 34 45 58 69 81 96 104 106 116 134 148 155 162 164 159 151 149 146 142 142 142 140 142 144 141 134 129 125 121 114 108 110 117 121
31 26 23 21 19 16 15 15 13 13 12 8 3 1 4 7 7 7 9 8 7 6 5 4 6 7 6 3 0 358 355 351 351 353 355 355 356 360 6 13 21 26 24 18 15 19 24 25 26 27 25 24 29 37 46 58 71 84 93 95 105 122 133 142 147 146 143 141 136 131 130 131 131 133 135 131 129 131 131 126 121 120 122 123 123
27 19 16 19 17 12 11 11 8 8 10 9 6 4 3 2 2 3 6 6 5 4 3 3 3 3 1 359 357 356 354 351 350 350 350 354 357 0 6 13 20 26 27 23 23 29 34 37 39 40 39 39 40 40 41 45 51 60 79 95 98 112 130 138 147 152 154 154 152 147 141 136 131 130 130 127 125 127 129 127 127 129 129 128 128
15 14 15 16 11 8 7 5 4 6 8 6 4 6 5 2 0 0 2 4 3 1 0 2 2 360 358 356 353 353 354 358 359 352 351 356 360 3 11 16 17 21 24 26 30 34 36 38 41 42 44 47 49 50 52 58 65 71 79 89 95 102 114 125 139 153 160 161 161 158 155 153 150 147 145 142 137 134 132 130 128 129 132 135 135
4 14 13 8 7 7 5 0 360 3 5 5 4 5 4 2 1 360 359 1 1 359 359 1 360 357 355 353 351 351 354 0 2 357 354 359 2 6 16 20 18 19 22 24 28 31 35 38 39 39 40 42 45 49 53 57 64 73 81 89 95 98 102 108 116 126 133 136 139 141 142 145 149 150 149 147 144 142 141 138 133 131 135 135 128
356 3 1 359 7 14 5 358 359 2 3 3 2 2 2 1 359 359 360 0 0 359 359 359 357 354 352 350 350 354 358 2 3 1 1 1 2 9 21 28 24 23 23 23 22 22 24 31 34 34 35 37 39 42 48 52 57 64 72 79 84 88 92 98 104 108 110 114 118 118 118 118 120 123 126 127 129 132 134 134 133 132 132 131 125
13 8 358 357 6 17 8 1 1 1 1 1 359 357 359 359 357 359 1 359 359 0 359 358 356 353 349 349 352 357 3 8 5 0 2 5 8 16 27 32 31 31 31 28 22 17 16 21 25 27 31 36 40 43 46 51 56 60 66 71 76 81 85 89 93 95 96 98 100 100 101 102 104 106 110 113 119 124 126 126 127 129 130 133 134
9 353 349 353 6 18 9 2 3 1 360 2 360 355 355 356 356 359 1 358 358 360 359 357 356 351 346 351 355 358 4 10 10 4 2 8 17 27 35 34 31 34 38 35 27 18 15 16 18 22 29 36 43 46 47 49 54 58 63 67 71 76 79 80 82 84 87 90 91 90 90 91 95 100 106 111 118 127 133 134 133 129 126 128 133
357 344 346 354 12 27 13 3 4 3 4 6 0 353 353 356 356 359 0 357 356 358 357 356 354 349 346 353 359 360 1 7 11 14 16 17 22 29 36 37 33 36 43 40 28 18 17 19 19 24 33 39 43 43 43 46 53 59 63 66 69 72 75 75 76 79 83 85 84 83 84 85 88 92 94 95 97 102 111 124 127 123 117 112 109
348 343 351 5 26 37 16 4 1 359 359 1 358 353 354 357 357 357 357 356 354 355 356 354 351 348 348 353 359 2 1 2 7 12 16 21 25 25 27 32 34 37 45 45 31 17 18 23 24 28 35 38 38 38 43 52 59 60 61 66 69 70 70 72 74 76 78 79 78 77 78 82 90 99 104 105 102 96 97 108 115 115 120 122 115
344 338 348 6 20 18 358 353 356 357 356 356 356 354 353 355 355 353 352 353 353 354 355 353 350 348 350 353 358 4 8 5 3 5 9 15 21 19 15 21 28 35 45 46 36 23 23 28 31 39 44 42 36 36 42 50 54 55 57 61 63 63 61 63 67 71 73 76 78 80 82 84 86 90 101 115 121 118 120 125 123 121 130 132 123
349 344 345 352 356 352 346 346 350 357 360 358 357 355 351 350 351 349 347 350 352 351 351 352 349 346 350 355 359 6 14 9 2 359 2 9 16 18 14 12 22 32 40 40 36 38 41 42 42 44 48 49 45 40 40 42 45 50 53 54 57 61 64 66 69 74 77 76 74 74 76 82 84 83 85 92 99 105 116 125 124 125 130 125 115
347 353 349 343 346 356 358 352 352 2 8 1 353 352 349 345 344 345 345 348 349 347 348 351 348 345 350 355 359 7 15 11 3 0 358 359 10 21 25 22 23 26 25 20 25 38 48 54 58 56 52 51 51 49 43 38 38 42 43 44 48 56 66 74 75 74 77 83 85 83 80 80 84 85 83 82 87 92 94 100 110 117 117 111 109
343 353 350 343 344 352 352 347 351 2 6 355 347 350 353 349 343 344 348 349 346 346 349 349 345 345 351 354 358 5 10 7 5 4 357 353 3 18 28 33 31 23 15 10 13 19 30 45 60 67 59 46 44 48 47 42 42 39 33 35 45 49 51 59 62 57 59 76 89 89 86 81 81 84 83 84 106 117 110 103 109 114 109 106 118
339 344 344 342 342 344 342 342 349 356 356 348 345 350 356 353 345 346 350 348 346 348 349 345 345 350 353 353 355 1 2 359 0 3 360 356 358 7 17 25 26 21 18 16 12 10 23 44 53 60 52 37 38 63 75 76 80 72 51 43 52 48 42 49 56 55 60 71 74 71 73 73 71 80 86 81 90 112 119 126 134 129 117 122 141
350 337 338 342 343 344 343 342 347 351 348 340 339 349 357 355 348 347 348 345 345 348 345 341 348 358 358 349 349 355 356 354 353 355 359 360 357 357 5 15 15 12 17 23 20 22 39 47 44 37 18 2 31 128 108 93 93 87 70 64 77 69 51 65 86 90 78 64 59 65 75 75 70 77 81 73 65 76 100 120 133 137 143 173 170
349 332 335 340 341 344 344 342 345 350 348 341 342 352 358 354 348 346 345 342 343 347 346 344 349 356 356 348 346 350 353 353 349 346 351 359 355 350 357 10 15 15 18 22 22 22 29 35 41 35 10 351 348 157 150 127 111 97 74 59 79 160 179 155 129 128 133 87 55 74 93 100 91 91 93 86 85 98 107 105 109 120 147 183 184
342 331 337 341 340 341 343 341 343 346 346 346 348 351 351 348 346 347 347 344 342 343 345 346 348 349 348 347 347 348 350 350 347 342 344 351 350 344 350 1 7 14 23 26 24 20 13 3 6 16 6 12 37 77 113 121 110 92 33 355 340 281 237 247 249 222 193 175 79 77 95 103 102 159 164 135 113 113 119 98 90 98 87 49 173
340 331 336 339 340 343 344 342 341 343 345 349 352 350 347 346 348 349 348 346 343 341 340 345 349 348 346 348 352 354 351 349 347 343 343 346 346 343 347 353 355 1 16 26 23 20 20 15 7 360 352 1 41 75 93 96 75 6 327 323 326 325 312 278 256 228 203 190 128 64 84 97 97 139 175 173 149 120 112 89 70 98 97 45 22
325 333 343 342 344 346 341 339 343 347 349 351 351 349 347 346 348 349 348 346 345 342 341 345 350 348 345 349 356 356 350 347 347 345 345 347 346 343 345 351 353 358 9 16 13 15 19 18 14 15 16 8 16 63 75 62 21 344 325 316 317 323 326 321 282 207 197 196 191 58 47 16 312 274 219 230 223 170 156 150 118 114 122 96 47
309 333 341 336 341 345 340 341 347 348 349 351 351 349 347 347 349 351 350 347 346 345 345 346 345 341 340 347 353 353 350 350 348 343 345 352 350 343 343 350 360 6 9 6 2 5 11 11 10 13 14 10 12 26 34 350 327 321 315 306 305 313 316 306 271 194 190 208 211 195 23 318 300 294 290 297 290 200 177 160 127 112 129 193 109
303 326 329 322 328 337 338 341 342 341 344 350 349 347 349 350 350 349 347 345 346 347 346 344 341 339 340 346 349 349 352 354 349 344 350 357 353 343 342 347 355 3 6 3 359 360 3 5 4 4 6 6 4 356 342 329 318 312 309 303 300 305 310 295 228 168 153 187 200 195 171 340 318 303 284 234 65 147 182 166 135 118 140 286 27
287 299 310 312 319 329 334 336 336 335 338 343 343 344 348 350 349 349 348 347 347 347 345 343 342 341 342 345 345 345 349 352 349 348 352 353 346 340 340 342 349 358 4 3 355 350 351 356 355 351 353 354 340 326 328 334 331 319 311 303 297 297 295 256 184 154 135 158 187 200 212 295 318 318 301 162 131 120 172 175 156 134 137 120 11
Height
1530 1529 1528 1526 1524 1521 1519 1517 1516 1514 1513 1512 1511 1511 1510 1509 1508 1507 1506 1505 1504 1503 1502 1501 1499 1497 1495 1493 1490 1489 1488 1487 1487 1486 1486 1486 1486 1488 1489 1490 1491 1492 1492 1493 1495 1496 1496 1496 1497 1498 1499 1500 1500 1501 1501 1502 1502 1503 1504 1505 1507 1508 1511 1513 1515 1517 1519 1521 1524 1526 1528 1530 1533 1534 1534 1535 1537 1538 1539 1540 1541 1543 1543 1545 1546
1530 1530 1528 1527 1525 1523 1521 1518 1517 1515 1513 1512 1511 1510 1510 1508 1507 1506 1505 1504 1503 1501 1500 1498 1497 1495 1493 1490 1487 1485 1485 1484 1484 1484 1483 1483 1484 1485 1487 1488 1489 1489 1489 1490 1492 1494 1494 1493 1494 1495 1497 1497 1498 1499 1499 1499 1500 1501 1502 1503 1504 1506 1507 1510 1512 1514 1516 1518 1521 1524 1526 1527 1530 1532 1532 1532 1535 1537 1537 1538 1539 1541 1542 1543 1544
1531 1530 1528 1527 1525 1524 1521 1519 1518 1516 1514 1513 1511 1510 1509 1508 1507 1505 1504 1502 1501 1500 1498 1497 1495 1493 1490 1487 1484 1482 1481 1482 1483 1483 1482 1482 1482 1483 1485 1487 1487 1487 1488 1489 1491 1492 1492 1492 1492 1492 1493 1494 1495 1496 1497 1497 1498 1499 1500 1502 1503 1504 1505 1507 1509 1511 1514 1516 1519 1522 1523 1525 1527 1530 1530 1531 1533 1535 1535 1536 1537 1539 1540 1541 1543
1531 1530 1528 1527 1526 1524 1522 1520 1519 1517 1515 1513 1512 1510 1509 1507 1506 1504 1503 1501 1499 1498 1497 1496 1494 1492 1488 1484 1482 1480 1480 1481 1482 1482 1482 1481 1481 1482 1484 1486 1487 1487 1487 1488 1489 1491 1492 1492 1491 1491 1492 1492 1493 1494 1495 1496 1497 1497 1499 1501 1503 1503 1503 1505 1507 1509 1512 1515 1518 1520 1522 1523 1526 1528 1529 1529 1531 1533 1534 1534 1536 1537 1538 1539 1541
1531 1529 1528 1527 1526 1524 1522 1521 1520 1518 1516 1514 1512 1510 1508 1507 1506 1504 1502 1500 1499 1497 1496 1495 1493 1491 1487 1484 1482 1482 1481 1482 1482 1482 1482 1482 1481 1482 1483 1484 1485 1485 1485 1486 1488 1489 1491 1491 1490 1489 1490 1489 1490 1492 1493 1494 1495 1496 1497 1499 1501 1501 1501 1502 1505 1507 1510 1512 1515 1517 1520 1521 1523 1525 1527 1527 1529 1532 1533 1533 1534 1536 1536 1537 1538
1531 1530 1528 1527 1526 1524 1523 1522 1521 1519 1517 1515 1513 1511 1508 1507 1505 1503 1501 1499 1498 1497 1495 1494 1492 1490 1488 1486 1484 1483 1482 1481 1481 1481 1481 1481 1481 1481 1481 1482 1482 1482 1483 1484 1486 1488 1490 1490 1488 1487 1488 1487 1488 1490 1491 1492 1493 1494 1495 1497 1499 1499 1499 1501 1503 1505 1507 1509 1511 1514 1517 1518 1521 1523 1524 1525 1526 1528 1530 1532 1533 1534 1534 1535 1536
1532 1530 1529 1527 1526 1525 1524 1523 1521 1520 1518 1516 1514 1511 1509 1507 1505 1503 1501 1499 1498 1496 1495 1493 1492 1490 1489 1487 1485 1484 1482 1481 1481 1480 1480 1479 1479 1480 1480 1481 1480 1480 1481 1483 1484 1486 1488 1489 1487 1486 1486 1486 1486 1488 1489 1490 1490 1492 1493 1494 1495 1497 1498 1499 1501 1502 1505 1506 1507 1511 1513 1516 1518 1520 1522 1524 1524 1525 1527 1529 1531 1532 1533 1534 1535
1532 1531 1530 1528 1527 1525 1524 1523 1522 1520 1519 1517 1515 1512 1509 1507 1505 1503 1502 1500 1498 1496 1494 1493 1492 1491 1489 1487 1485 1484 1483 1481 1481 1480 1479 1479 1479 1479 1479 1480 1479 1480 1480 1481 1482 1483 1485 1487 1486 1484 1484 1484 1485 1486 1486 1487 1488 1489 1490 1491 1492 1494 1495 1497 1498 1500 1502 1503 1504 1508 1511 1513 1516 1518 1520 1522 1522 1522 1524 1526 1528 1529 1531 1532 1534
1533 1532 1531 1529 1528 1526 1525 1524 1522 1521 1519 1517 1515 1512 1510 1508 1506 1504 1503 1500 1498 1496 1495 1493 1492 1491 1489 1488 1485 1483 1482 1481 1480 1480 1479 1478 1478 1478 1478 1478 1478 1479 1479 1479 1480 1480 1482 1484 1484 1483 1483 1484 1484 1484 1484 1485 1485 1486 1487 1487 1489 1491 1492 1494 1496 1498 1499 1501 1502 1505 1507 1510 1512 1514 1516 1518 1518 1519 1521 1524 1526 1528 1529 1531 1532
1534 1533 1532 1530 1529 1528 1526 1525 1523 1522 1519 1518 1516 1513 1511 1509 1507 1505 1503 1501 1499 1497 1495 1494 1492 1490 1489 1487 1486 1483 1482 1481 1480 1479 1479 1478 1477 1477 1477 1478 1477 1477 1478 1477 1478 1478 1479 1482 1483 1483 1483 1484 1483 1481 1481 1482 1483 1483 1484 1485 1486 1488 1490 1491 1494 1495 1497 1498 1500 1502 1504 1506 1509 1511 1513 1515 1517 1517 1519 1521 1524 1526 1528 1529 1530
1536 1535 1533 1532 1531 1530 1528 1526 1524 1523 1520 1519 1517 1515 1513 1511 1508 1507 1504 1502 1500 1497 1496 1494 1492 1491 1489 1487 1486 1484 1482 1481 1479 1478 1478 1477 1476 1476 1476 1476 1476 1476 1476 1476 1477 1477 1478 1480 1481 1482 1483 1483 1482 1480 1479 1480 1481 1481 1482 1483 1484 1486 1488 1489 1491 1493 1494 1496 1498 1500 1501 1503 1506 1509 1510 1513 1515 1516 1516 1519 1521 1524 1525 1526 1527
1537 1536 1535 1534 1533 1531 1529 1528 1526 1524 1521 1520 1518 1516 1514 1512 1510 1508 1506 1503 1501 1498 1496 1495 1493 1491 1490 1487 1486 1484 1482 1480 1478 1477 1476 1475 1475 1475 1475 1475 1475 1475 1475 1475 1476 1476 1477 1478 1479 1480 1480 1480 1480 1479 1478 1478 1479 1479 1480 1481 1482 1484 1486 1487 1489 1491 1492 1494 1496 1497 1499 1501 1504 1506 1507 1510 1512 1513 1514 1517 1519 1521 1523 1523 1524
1539 1538 1536 1535 1534 1532 1531 1529 1527 1525 1523 1521 1519 1517 1516 1513 1511 1510 1508 1506 1503 1500 1498 1496 1494 1492 1490 1488 1486 1484 1482 1480 1478 1476 1475 1474 1474 1473 1473 1473 1474 1474 1474 1474 1475 1474 1475 1475 1476 1476 1477 1477 1478 1479 1479 1479 1478 1478 1478 1479 1480 1482 1483 1484 1487 1489 1491 1493 1494 1495 1497 1499 1501 1503 1505 1507 1509 1511 1513 1515 1516 1518 1520 1521 1522
1539 1538 1537 1536 1534 1533 1532 1530 1529 1527 1525 1523 1521 1518 1517 1515 1513 1511 1509 1507 1505 1503 1500 1498 1496 1494 1491 1489 1487 1484 1482 1480 1478 1476 1474 1473 1473 1472 1472 1472 1472 1473 1473 1473 1473 1473 1473 1474 1474 1474 1475 1475 1477 1479 1480 1479 1477 1476 1477 1477 1478 1479 1480 1481 1483 1485 1488 1491 1493 1494 1496 1498 1499 1501 1503 1505 1507 1508 1510 1512 1514 1516 1518 1520 1521
1540 1539 1538 1536 1535 1533 1532 1531 1530 1529 1527 1525 1523 1520 1518 1516 1515 1513 1511 1509 1507 1505 1503 1501 1498 1495 1493 1491 1488 1485 1483 1480 1478 1476 1474 1472 1471 1471 1470 1470 1470 1471 1471 1471 1471 1471 1472 1472 1472 1473 1474 1475 1476 1477 1478 1478 1476 1475 1475 1476 1476 1477 1478 1480 1481 1483 1486 1489 1490 1492 1493 1495 1497 1498 1501 1503 1504 1506 1508 1510 1513 1515 1516 1518 1519
1541 1540 1539 1537 1535 1534 1533 1532 1531 1530 1528 1527 1525 1523 1521 1518 1517 1515 1512 1511 1508 1506 1504 1503 1500 1498 1494 1492 1489 1486 1483 1481 1478 1476 1474 1472 1471 1469 1469 1469 1469 1469 1469 1469 1469 1469 1469 1469 1470 1471 1472 1474 1474 1474 1475 1475 1474 1473 1474 1474 1475 1475 1477 1478 1480 1481 1484 1486 1487 1489 1490 1492 1494 1497 1499 1500 1502 1505 1507 1509 1511 1512 1513 1515 1516
1542 1541 1540 1538 1537 1536 1535 1533 1532 1531 1530 1528 1526 1525 1523 1521 1519 1517 1515 1512 1510 1508 1506 1504 1502 1500 1496 1493 1490 1487 1484 1481 1479 1476 1474 1472 1470 1468 1468 1467 1467 1467 1467 1467 1467 1468 1468 1467 1468 1469 1470 1471 1471 1471 1472 1472 1471 1471 1472 1472 1472 1473 1475 1476 1477 1479 1482 1483 1484 1486 1488 1490 1493 1495 1497 1498 1500 1502 1504 1506 1508 1509 1510 1511 1512
1543 1542 1541 1540 1538 1537 1536 1535 1534 1532 1531 1529 1528 1526 1525 1523 1521 1520 1518 1515 1512 1510 1508 1506 1504 1501 1499 1496 1492 1489 1486 1483 1480 1477 1474 1472 1470 1468 1467 1466 1465 1465 1465 1465 1465 1465 1466 1465 1465 1466 1467 1468 1468 1468 1469 1470 1469 1470 1471 1470 1470 1471 1472 1474 1475 1477 1479 1480 1482 1483 1485 1487 1490 1492 1494 1495 1497 1499 1501 1502 1504 1506 1507 1508 1508
1544 1544 1543 1541 1540 1539 1537 1536 1535 1534 1533 1531 1530 1528 1527 1525 1523 1521 1520 1518 1515 1512 1510 1508 1506 1503 1501 1498 1494 1491 1488 1485 1481 1478 1475 1472 1470 1468 1467 1465 1464 1463 1463 1463 1463 1463 1464 1463 1463 1464 1465 1465 1465 1465 1467 1468 1468 1468 1469 1469 1469 1469 1471 1472 1474 1475 1476 1477 1479 1480 1481 1484 1487 1488 1490 1492 1493 1495 1496 1497 1499 1502 1503 1504 1504
1546 1545 1544 1543 1541 1540 1539 1538 1537 1535 1534 1533 1531 1530 1528 1527 1525 1523 1521 1520 1518 1515 1512 1510 1507 1505 1502 1500 1496 1493 1490 1487 1484 1481 1477 1474 1471 1469 1467 1464 1463 1462 1462 1461 1461 1461 1461 1461 1461 1462 1463 1463 1462 1462 1463 1464 1464 1465 1466 1467 1467 1468 1469 1470 1472 1473 1474 1475 1476 1478 1479 1481 1483 1485 1487 1488 1490 1491 1492 1494 1497 1498 1498 1499 1499
1547 1546 1545 1544 1542 1541 1540 1539 1538 1537 1536 1535 1533 1532 1530 1528 1526 1524 1523 1521 1519 1517 1514 1512 1509 1507 1504 1502 1498 1496 1493 1490 1487 1483 1480 1477 1474 1471 1468 1465 1464 1463 1461 1460 1460 1460 1459 1459 1460 1461 1461 1460 1460 1460 1461 1461 1462 1463 1464 1464 1465 1467 1468 1469 1469 1471 1472 1473 1475 1476 1478 1479 1481 1482 1484 1485 1487 1488 1489 1492 1495 1494 1495 1497 1497
1548 1547 1546 1545 1543 1542 1541 1540 1539 1538 1537 1536 1535 1533 1532 1530 1528 1526 1524 1522 1520 1518 1516 1513 1511 1509 1506 1503 1500 1498 1495 1492 1489 1486 1483 1480 1477 1473 1471 1468 1466 1464 1462 1460 1459 1459 1458 1458 1458 1458 1458 1458 1458 1458 1459 1459 1460 1461 1462 1463 1464 1465 1466 1467 1467 1468 1470 1472 1473 1474 1475 1477 1479 1480 1482 1483 1484 1485 1487 1489 1491 1492 1493 1496 1496
1548 1548 1547 1546 1544 1543 1543 1541 1540 1540 1539 1537 1536 1535 1533 1531 1530 1528 1526 1524 1522 1520 1517 1515 1513 1510 1508 1505 1502 1500 1497 1495 1492 1488 1486 1483 1480 1477 1474 1471 1469 1466 1463 1461 1460 1459 1458 1457 1456 1456 1456 1456 1456 1456 1457 1458 1459 1460 1460 1462 1463 1463 1464 1465 1466 1468 1469 1471 1472 1473 1474 1476 1478 1479 1480 1481 1482 1483 1485 1486 1488 1489 1491 1494 1495
1549 1548 1548 1547 1546 1544 1544 1543 1541 1540 1539 1539 1537 1536 1534 1533 1531 1529 1527 1525 1523 1521 1519 1516 1514 1512 1509 1507 1504 1502 1499 1497 1494 1491 1488 1485 1483 1480 1478 1475 1472 1469 1467 1464 1462 1461 1459 1458 1457 1456 1456 1455 1455 1455 1456 1457 1458 1458 1458 1459 1460 1461 1463 1465 1466 1468 1469 1470 1471 1472 1473 1475 1476 1477 1478 1480 1481 1482 1483 1485 1486 1488 1490 1493 1494
1550 1549 1549 1548 1547 1546 1545 1544 1543 1541 1540 1540 1538 1537 1536 1534 1532 1530 1529 1527 1525 1523 1520 1518 1516 1514 1511 1509 1506 1504 1501 1499 1496 1493 1491 1488 1485 1483 1481 1478 1476 1473 1470 1468 1466 1464 1462 1461 1459 1458 1457 1456 1456 1456 1455 1455 1457 1458 1458 1458 1458 1459 1461 1464 1465 1466 1467 1468 1469 1471 1471 1473 1475 1477 1478 1480 1481 1482 1483 1484 1486 1487 1489 1491 1492
1551 1551 1550 1549 1548 1547 1546 1545 1544 1543 1541 1541 1540 1538 1537 1535 1533 1531 1529 1528 1526 1524 1522 1520 1518 1516 1513 1511 1508 1506 1503 1500 1498 1495 1493 1490 1487 1485 1483 1481 1479 1477 1474 1472 1470 1468 1466 1464 1462 1461 1459 1459 1459 1459 1456 1455 1456 1457 1457 1458 1458 1458 1459 1461 1463 1464 1465 1466 1467 1469 1470 1472 1474 1476 1478 1480 1481 1483 1484 1485 1486 1487 1489 1490 1492
1552 1552 1551 1550 1549 1548 1547 1546 1545 1544 1543 1541 1541 1539 1537 1535 1534 1532 1530 1528 1527 1525 1523 1522 1520 1517 1515 1512 1510 1507 1504 1502 1499 1497 1495 1492 1489 1487 1485 1482 1480 1478 1477 1475 1474 1472 1470 1468 1465 1464 1463 1462 1462 1462 1460 1457 1457 1458 1457 1457 1459 1459 1460 1460 1461 1463 1464 1466 1467 1468 1470 1472 1473 1475 1477 1479 1481 1482 1484 1485 1486 1487 1489 1490 1491
1553 1552 1552 1551 1550 1549 1548 1547 1546 1545 1543 1542 1541 1540 1538 1536 1534 1533 1531 1529 1527 1526 1524 1522 1521 1519 1516 1513 1511 1508 1506 1503 1501 1498 1496 1494 1492 1490 1487 1485 1482 1480 1478 1477 1476 1474 1473 1471 1470 1468 1467 1465 1464 1464 1462 1461 1460 1461 1460 1459 1460 1461 1462 1462 1463 1464 1466 1467 1468 1469 1470 1472 1474 1475 1477 1479 1481 1483 1484 1486 1487 1488 1489 1490 1492
1554 1554 1553 1551 1551 1550 1549 1548 1547 1546 1544 1543 1541 1540 1539 1538 1536 1534 1532 1531 1529 1527 1525 1523 1522 1520 1518 1515 1512 1509 1507 1504 1503 1500 1498 1496 1495 1493 1490 1488 1486 1483 1481 1479 1478 1476 1475 1473 1472 1471 1470 1468 1467 1466 1465 1464 1463 1464 1464 1462 1462 1462 1463 1464 1465 1466 1469 1470 1471 1471 1471 1472 1474 1475 1477 1479 1481 1484 1486 1486 1488 1489 1491 1492 1494
1555 1554 1553 1552 1552 1551 1550 1549 1548 1547 1546 1544 1542 1540 1539 1538 1537 1535 1534 1532 1530 1528 1526 1524 1523 1521 1519 1516 1514 1511 1508 1506 1504 1502 1500 1499 1497 1495 1493 1491 1489 1487 1485 1483 1481 1478 1476 1475 1474 1473 1472 1471 1470 1469 1468 1467 1467 1467 1467 1467 1466 1466 1466 1466 1467 1468 1470 1472 1473 1474 1474 1474 1475 1476 1478 1480 1482 1485 1487 1488 1489 1491 1493 1494 1495
1556 1555 1554 1553 1552 1551 1550 1549 1548 1547 1546 1545 1544 1542 1540 1539 1538 1536 1535 1533 1531 1529 1527 1525 1523 1521 1519 1517 1515 1512 1510 1507 1505 1503 1501 1500 1498 1497 1495 1494 1492 1490 1488 1486 1483 1481 1479 1477 1476 1475 1474 1473 1472 1471 1470 1470 1469 1469 1469 1469 1469 1469 1469 1469 1470 1471 1472 1473 1475 1476 1476 1476 1477 1478 1480 1482 1484 1486 1488 1490 1491 1493 1495 1496 1497
1556 1555 1554 1553 1552 1552 1551 1550 1549 1548 1547 1546 1545 1544 1542 1541 1539 1537 1536 1534 1532 1530 1529 1526 1524 1522 1520 1518 1515 1512 1510 1507 1505 1504 1502 1501 1499 1498 1496 1495 1493 1492 1490 1488 1486 1484 1482 1481 1480 1479 1478 1477 1475 1475 1474 1472 1472 1471 1471 1470 1470 1470 1471 1471 1472 1473 1473 1475 1476 1477 1477 1478 1479 1481 1482 1483 1485 1487 1489 1491 1493 1495 1496 1498 1498
1555 1555 1554 1553 1552 1552 1551 1550 1549 1548 1547 1546 1546 1544 1543 1542 1541 1539 1537 1535 1533 1532 1530 1528 1525 1523 1521 1519 1517 1513 1510 1508 1506 1504 1503 1502 1500 1499 1497 1496 1495 1494 1492 1490 1488 1487 1485 1484 1483 1482 1481 1480 1479 1478 1477 1476 1475 1474 1473 1473 1472 1472 1472 1473 1473 1474 1475 1476 1477 1478 1479 1480 1481 1482 1483 1485 1486 1488 1490 1492 1494 1495 1497 1498 1499
1555 1555 1553 1553 1552 1552 1551 1550 1549 1549 1548 1547 1546 1545 1544 1543 1541 1540 1538 1536 1535 1533 1531 1529 1527 1525 1523 1520 1518 1514 1511 1508 1507 1505 1504 1503 1501 1500 1499 1497 1496 1495 1494 1492 1491 1490 1488 1487 1485 1484 1483 1482 1481 1480 1479 1479 1478 1477 1477 1476 1475 1475 1475 1475 1476 1476 1477 1478 1479 1479 1480 1481 1482 1483 1484 1486 1487 1489 1491 1492 1494 1496 1497 1498 1499
1556 1554 1553 1552 1552 1552 1551 1550 1549 1549 1548 1547 1546 1545 1544 1543 1542 1540 1539 1537 1535 1534 1533 1531 1529 1527 1524 1522 1519 1515 1512 1509 1507 1506 1505 1504 1502 1501 1500 1498 1497 1496 1495 1494 1493 1492 1491 1490 1488 1487 1486 1485 1484 1483 1482 1482 1481 1480 1480 1479 1479 1478 1478 1478 1479 1479 1480 1480 1481 1482 1483 1483 1484 1485 1487 1488 1489 1490 1492 1494 1495 1496 1498 1499 1500
1556 1555 1553 1553 1552 1552 1551 1551 1550 1549 1548 1548 1547 1546 1545 1543 1542 1541 1540 1538 1536 1535 1534 1532 1530 1528 1526 1523 1520 1516 1513 1510 1508 1507 1506 1505 1503 1502 1501 1499 1499 1498 1497 1497 1496 1495 1493 1492 1491 1490 1489 1488 1487 1486 1485 1485 1484 1483 1483 1482 1482 1482 1482 1482 1482 1482 1483 1484 1484 1485 1486 1487 1487 1488 1489 1490 1491 1493 1494 1495 1496 1497 1498 1500 1501
1556 1555 1554 1553 1552 1552 1552 1551 1550 1549 1548 1548 1547 1546 1545 1544 1543 1541 1540 1539 1537 1535 1534 1533 1530 1528 1526 1523 1521 1518 1515 1512 1510 1508 1506 1505 1504 1503 1502 1501 1501 1500 1499 1498 1498 1497 1496 1494 1493 1492 1491 1490 1489 1488 1488 1487 1487 1486 1486 1485 1485 1485 1485 1485 1485 1486 1486 1487 1488 1488 1489 1490 1491 1491 1492 1493 1494 1495 1496 1497 1498 1499 1500 1501 1502
1556 1555 1555 1554 1552 1551 1552 1551 1550 1550 1549 1548 1547 1546 1545 1544 1543 1542 1540 1539 1537 1535 1534 1532 1530 1528 1526 1524 1522 1519 1516 1514 1511 1509 1507 1506 1505 1504 1504 1503 1502 1501 1500 1500 1500 1499 1498 1497 1496 1495 1494 1493 1492 1491 1491 1490 1490 1490 1489 1489 1488 1488 1488 1488 1489 1489 1489 1490 1490 1491 1492 1492 1493 1494 1494 1495 1496 1497 1498 1499 1500 1500 1501 1502 1504
1556 1555 1555 1554 1552 1552 1552 1551 1550 1549 1548 1548 1547 1546 1545 1544 1543 1542 1541 1539 1538 1536 1534 1532 1531 1529 1527 1525 1523 1520 1518 1515 1513 1510 1509 1507 1506 1506 1505 1504 1503 1503 1502 1501 1501 1501 1500 1499 1498 1497 1496 1496 1495 1494 1494 1493 1493 1492 1492 1492 1492 1492 1492 1492 1492 1492 1492 1492 1493 1494 1494 1495 1495 1496 1496 1497 1498 1499 1499 1500 1501 1502 1503 1504 1505
1556 1555 1555 1554 1553 1552 1552 1551 1550 1549 1548 1547 1547 1546 1545 1544 1543 1542 1541 1539 1538 1536 1535 1533 1531 1529 1528 1526 1524 1522 1520 1518 1515 1513 1511 1509 1508 1507 1505 1505 1505 1504 1503 1503 1502 1502 1501 1500 1500 1499 1499 1498 1498 1497 1496 1496 1495 1494 1494 1494 1494 1494 1494 1494 1494 1494 1494 1495 1496 1496 1496 1497 1497 1498 1499 1499 1500 1501 1501 1502 1502 1503 1504 1505 1506
1556 1555 1555 1554 1553 1552 1551 1551 1550 1549 1548 1548 1547 1546 1545 1544 1543 1542 1541 1539 1538 1537 1535 1534 1532 1530 1528 1527 1525 1523 1522 1520 1518 1516 1514 1512 1510 1508 1507 1506 1506 1505 1505 1504 1504 1503 1502 1502 1501 1501 1501 1501 1500 1500 1499 1499 1498 1497 1497 1497 1496 1496 1496 1496 1496 1497 1497 1497 1497 1498 1498 1499 1500 1500 1501 1501 1502 1503 1503 1504 1504 1505 1505 1506 1506
1555 1555 1554 1554 1553 1552 1551 1551 1550 1549 1548 1548 1547 1546 1545 1544 1543 1542 1541 1540 1538 1537 1535 1534 1532 1531 1529 1528 1526 1525 1523 1522 1521 1518 1516 1514 1512 1510 1509 1508 1507 1507 1506 1506 1505 1504 1504 1503 1503 1503 1502 1502 1502 1501 1501 1501 1500 1500 1500 1499 1498 1498 1499 1499 1499 1499 1499 1499 1499 1500 1500 1501 1501 1502 1502 1503 1503 1504 1504 1505 1505 1506 1506 1507 1507
1555 1555 1554 1554 1553 1552 1552 1551 1550 1549 1548 1548 1546 1545 1545 1544 1543 1542 1541 1540 1538 1537 1535 1534 1533 1531 1530 1528 1527 1526 1524 1523 1522 1520 1518 1516 1514 1512 1511 1510 1509 1508 1507 1507 1506 1505 1505 1505 1504 1504 1503 1503 1502 1502 1502 1502 1501 1501 1502 1502 1501 1501 1501 1501 1501 1501 1501 1501 1502 1502 1502 1502 1503 1503 1504 1504 1504 1504 1505 1505 1505 1506 1506 1507 1507
1554 1554 1554 1553 1553 1552 1551 1551 1550 1549 1548 1547 1546 1545 1544 1544 1543 1542 1541 1540 1539 1537 1536 1534 1532 1531 1530 1529 1528 1527 1525 1524 1522 1521 1520 1518 1516 1514 1513 1512 1510 1509 1508 1508 1507 1506 1506 1506 1505 1505 1504 1504 1503 1503 1503 1503 1503 1503 1503 1503 1503 1503 1503 1502 1503 1503 1503 1503 1503 1503 1503 1504 1504 1504 1505 1505 1505 1505 1505 1505 1506 1506 1506 1506 1507
1554 1554 1554 1553 1552 1552 1551 1550 1549 1548 1547 1546 1546 1545 1544 1543 1543 1542 1541 1540 1539 1537 1536 1535 1533 1531 1531 1529 1528 1527 1526 1524 1523 1522 1521 1520 1518 1516 1515 1513 1512 1511 1509 1508 1508 1508 1507 1506 1506 1506 1505 1504 1504 1504 1504 1504 1504 1504 1504 1503 1503 1503 1503 1503 1503 1503 1503 1504 1504 1503 1503 1504 1505 1505 1505 1505 1506 1506 1506 1506 1506 1506 1506 1506 1507
1553 1554 1553 1552 1552 1551 1550 1550 1549 1548 1547 1546 1546 1545 1544 1543 1542 1541 1540 1540 1539 1538 1537 1535 1533 1532 1531 1529 1528 1527 1526 1525 1524 1522 1521 1520 1519 1517 1516 1514 1513 1512 1511 1510 1509 1509 1508 1507 1507 1506 1506 1505 1505 1505 1505 1505 1505 1505 1505 1504 1504 1504 1504 1504 1504 1504 1504 1505 1505 1504 1504 1504 1504 1505 1505 1505 1505 1506 1506 1507 1507 1507 1507 1507 1507
1553 1553 1553 1552 1551 1551 1550 1549 1549 1548 1547 1546 1545 1545 1544 1543 1542 1541 1540 1539 1539 1538 1537 1535 1534 1532 1531 1529 1528 1527 1526 1525 1524 1523 1522 1520 1519 1518 1517 1515 1514 1513 1512 1511 1510 1509 1509 1508 1507 1507 1507 1506 1506 1506 1506 1506 1506 1506 1505 1505 1505 1505 1505 1504 1504 1504 1504 1505 1505 1505 1505 1504 1504 1504 1505 1505 1506 1506 1506 1507 1507 1508 1508 1508 1507
1553 1552 1552 1551 1551 1550 1550 1549 1548 1547 1547 1546 1545 1544 1544 1543 1542 1541 1540 1539 1538 1537 1536 1535 1534 1533 1531 1530 1529 1528 1527 1526 1525 1524 1522 1521 1520 1519 1518 1517 1515 1514 1513 1512 1511 1511 1510 1509 1509 1508 1507 1507 1507 1507 1507 1506 1506 1506 1506 1506 1506 1505 1505 1505 1505 1504 1505 1505 1505 1505 1505 1505 1505 1505 1505 1506 1506 1506 1507 1507 1508 1508 1509 1509 1509
1552 1552 1551 1551 1550 1549 1549 1548 1548 1547 1546 1546 1545 1544 1543 1542 1541 1541 1540 1539 1538 1537 1536 1535 1534 1533 1531 1530 1529 1528 1527 1526 1525 1524 1523 1522 1521 1519 1518 1517 1517 1515 1513 1513 1512 1512 1511 1511 1510 1509 1508 1508 1507 1508 1507 1507 1507 1507 1506 1506 1506 1506 1505 1505 1505 1505 1505 1506 1506 1505 1505 1505 1505 1505 1505 1506 1506 1506 1507 1507 1508 1508 1509 1509 1509
1551 1551 1550 1550 1549 1548 1548 1548 1547 1547 1546 1545 1545 1544 1543 1542 1541 1540 1540 1539 1538 1537 1536 1535 1534 1533 1532 1530 1529 1528 1527 1526 1525 1524 1523 1522 1521 1520 1518 1518 1517 1516 1515 1514 1513 1513 1512 1511 1511 1510 1509 1509 1508 1508 1508 1508 1507 1507 1507 1506 1506 1506 1505 1505 1505 1506 1506 1506 1506 1506 1506 1505 1505 1505 1505 1506 1506 1506 1507 1507 1508 1508 1509 1509 1509
1550 1549 1549 1549 1548 1548 1547 1547 1547 1546 1545 1545 1544 1544 1543 1542 1541 1540 1539 1538 1537 1537 1536 1534 1534 1533 1532 1530 1529 1528 1527 1526 1525 1525 1524 1523 1522 1521 1519 1518 1517 1517 1516 1515 1515 1514 1513 1513 1512 1511 1511 1510 1509 1509 1508 1508 1507 1507 1506 1506 1506 1505 1506 1506 1506 1506 1506 1506 1506 1506 1506 1506 1505 1505 1505 1505 1505 1506 1506 1507 1507 1508 1508 1509 1509